SPACEBEE-34 (46933 NORAD) Tracking and Keplerian Element Data

This shows tracking and keplerian element data for the satellite.

Feedback or suggestion? Click here.




ElementValue
Catalog46933
NameSPACEBEE-34
Epoch Orbit897
Epoch Day18.12270712
Epoch Year2021
RAAN157.5508
Inclination97.3745
Eccentricity0.0017272
Argument of Perigee94.0504
Mean Anonmoly266.2708
Mean Motion15.21757581
Decay Rate3.974E-05
L11 46933U 20085E 21018.12270712 .00003974 00000-0 17766-3 0 9997
L22 46933 97.3745 157.5508 0017272 94.0504 266.2708 15.21757581 8971

Live tracking and technical data element details for SPACEBEE-34 (NORAD 46933). SPACEBEE-34 can be tracked NOW for your location showing map with azimuth and elevation plus other details from your city location.

Track the satellite on the map from your city or location and see movement details for azimuth, elevation, latitude, longitude, range, height, and movement on the map or in text.







IsCatalogInMostPopularTable: catalog: 46933, numindb: 19
Update: records affected: 1



GetName: 46933 SPACEBEE-34

Hit Count: updated at: Tue, 19 Jan 2021 02:54:21 GMT